KD9LKD-13 Weather Reports


time (UTC)temp
F
wind
direction
speed
knots
gust
knots
rain 1hr
in
rain 24hr
in
rain mn
in
humidity
%
barometer
mb
20260503193031 63 208 5.2 15.6 0.00 0.00 0.00 37 1010.0
20260503191524 61 261 3.5 17.4 0.00 0.00 0.00 43 1010.3
20260503190013 62 217 6.1 15.6 0.00 0.00 0.00 45 1010.3
20260503184516 63 260 2.6 18.2 0.00 0.00 0.00 46 1010.4
20260503183015 62 194 6.1 16.5 0.00 0.00 0.00 38 1010.7
20260503181520 62 267 7.8 18.2 0.00 0.00 0.00 36 1010.9
20260503180024 61 290 6.1 20.9 0.00 0.00 0.00 39 1011.2
20260503174510 61 25 3.5 12.2 0.00 0.00 0.00 45 1011.1
20260503173019 60 213 3.5 13.0 0.00 0.00 0.00 43 1011.3
20260503171518 59 215 5.2 12.2 0.00 0.00 0.00 45 1011.7
20260503071524 33 225 0.0 2.6 0.00 0.00 0.00 71 1014.6
20260503051508 33 213 0.0 0.0 0.00 0.00 0.00 72 1015.5
20260503050011 34 213 0.0 0.0 0.00 0.00 0.00 73 1015.5
20260503044516 34 213 0.0 0.0 0.00 0.00 0.00 71 1015.6
20260503043018 35 213 0.0 0.0 0.00 0.00 0.00 70 1015.5
20260503041506 35 223 0.0 3.5 0.00 0.00 0.00 71 1015.5
20260503040010 35 245 0.0 1.7 0.00 0.00 0.00 71 1015.7
20260503034512 35 245 0.0 0.0 0.00 0.00 0.00 70 1015.8
20260503033024 35 245 0.0 0.9 0.00 0.00 0.00 70 1015.8
20260503030010 35 245 0.0 0.9 0.00 0.00 0.00 70 1015.8
20260503024508 36 245 0.0 0.9 0.00 0.00 0.00 69 1016.0
20260503023019 36 245 0.0 0.0 0.00 0.00 0.00 69 1016.1
20260503021520 36 245 0.0 0.0 0.00 0.00 0.00 68 1016.0
20260503020024 37 245 0.0 0.0 0.00 0.00 0.00 66 1015.8
20260503014507 38 245 0.0 0.0 0.00 0.00 0.00 64 1015.9
20260503013012 39 245 0.0 0.9 0.00 0.00 0.00 62 1015.7
20260503003033 44 245 0.0 1.7 0.00 0.00 0.00 54 1015.4
20260503001520 44 313 0.9 2.6 0.00 0.00 0.00 51 1015.3
20260502224524 48 267 1.7 5.2 0.00 0.00 0.00 47 1015.7
20260502223022 47 292 0.9 5.2 0.00 0.00 0.00 47 1015.8
20260502221524 47 205 0.9 5.2 0.00 0.00 0.00 46 1015.8
20260502213023 47 263 0.9 7.8 0.00 0.00 0.00 48 1015.7
20260502211524 47 5 1.7 7.0 0.00 0.00 0.00 45 1015.9
20260502210026 48 279 0.9 7.0 0.00 0.00 0.00 48 1015.9
20260502203024 48 312 1.7 7.8 0.00 0.00 0.00 45 1016.1
20260502201505 48 260 0.9 8.7 0.00 0.00 0.00 45 1016.3
20260502194514 46 254 2.6 8.7 0.00 0.00 0.00 47 1016.6